Powrót do katalogu

FENGYUN 1C DEB

AktywnyPO
NORAD 36273·DEBRIS·🇨🇳 China

Wystrzelony May 10, 1999 z Taiyuan Satellite Launch Center

Loading…

Następne Przeloty (najbliższe 24 godziny)

TLE

Starzejące sięSource: Space-Track

Epoka: Sep 8, 2026, 11:59 UTC

1 36273U 99025DXA 26251.49931046  .00000276  00000-0  15628-3 0  9998
2 36273  99.5702 146.7874 0095985 316.6824  42.6830 14.16841588700532

Śledź FENGYUN 1C DEB w czasie rzeczywistym z AllMySat

Download on the App Store